This is the latest recevied weather packets stored in our database for station/object KC3AWA. If no packets are shown the sender has not sent any weather packets the latest 10 day(s).
| Time | Temp. | Humidity | Pressure | Rain* | Wind** | Luminosity | Snow |
|---|---|---|---|---|---|---|---|
| 1777865155 | 8.89° C | 58% | 1013.4 hPa | 0 mm | - | 0 W/m² | - |
| 1777864852 | 8.89° C | 59% | 1013.4 hPa | 0 mm | - | 0 W/m² | - |
| 1777864549 | 8.89° C | 58% | 1013.3 hPa | 0 mm | - | 0 W/m² | - |
| 1777864245 | 8.89° C | 59% | 1013.6 hPa | 0 mm | - | 0 W/m² | - |
| 1777863942 | 8.89° C | 60% | 1013.3 hPa | 0 mm | - | 0 W/m² | - |
| 1777863638 | 8.89° C | 58% | 1013.6 hPa | 0 mm | - | 0 W/m² | - |
| 1777863336 | 8.89° C | 59% | 1013.6 hPa | 0 mm | - | 0 W/m² | - |
| 1777863032 | 9.44° C | 57% | 1013.6 hPa | 0 mm | - | 0 W/m² | - |
| 1777862729 | 9.44° C | 59% | 1013.8 hPa | 0 mm | - | 0 W/m² | - |
| 1777862426 | 8.89° C | 57% | 1013.7 hPa | 0 mm | - | 0 W/m² | - |
| 1777862123 | 8.89° C | 57% | 1013.8 hPa | 0 mm | - | 0 W/m² | - |
| 1777861818 | 8.89° C | 59% | 1013.9 hPa | 0 mm | - | 0 W/m² | - |
| 1777861514 | 8.89° C | 59% | 1013.8 hPa | 0 mm | - | 0 W/m² | - |
| 1777861211 | 9.44° C | 56% | 1013.8 hPa | 0 mm | - | 0 W/m² | - |
| 1777860909 | 9.44° C | 56% | 1013.6 hPa | 0 mm | - | 0 W/m² | - |
| 1777860606 | 9.44° C | 57% | 1013.4 hPa | 0 mm | - | 0 W/m² | - |
| 1777860302 | 9.44° C | 55% | 1013.6 hPa | 0 mm | - | 0 W/m² | - |
| 1777859999 | 9.44° C | 58% | 1013.6 hPa | 0 mm | - | 0 W/m² | - |
| 1777859695 | 9.44° C | 58% | 1013.4 hPa | 0 mm | - | 0 W/m² | - |
| 1777859391 | 10° C | 56% | 1013.4 hPa | 0 mm | - | 0 W/m² | - |
| 1777859087 | 10° C | 54% | 1013.4 hPa | 0 mm | - | 0 W/m² | - |
| 1777858784 | 10° C | 54% | 1013.3 hPa | 0 mm | - | 0 W/m² | - |
| 1777858483 | 10° C | 54% | 1013.4 hPa | 0 mm | - | 0 W/m² | - |
| 1777858178 | 10° C | 55% | 1013.3 hPa | 0 mm | - | 0 W/m² | - |
| 1777857877 | 10° C | 57% | 1013.3 hPa | 0 mm | - | 0 W/m² | - |
* Rain latest hour (hover to see other rain measurements)
** Current wind speed in m/s (hover to see current wind gust speed)